[[{"header":{"parameterUnit":"m.s-1","parameterCategory":1,"la1":30.2991,"la2":30.254,"lo1":-89.0895,"lo2":-89.0444,"dy":0.0017,"dx":0.0017,"nx":28,"ny":28,"refTime":"2025-06-01T21:00:00:Z","depth":0,"parameterNumber":2,"parameterNumberName":"U-component_of_WINDS"},"data":[0,0,0,0,0,0,0,0,0,0,0,0,0,0,0,0,0,0,0,0,0,0,0,0,0,0,0,0,0,0,0,0,0,0,0,0,0,0,0,0,0,0,0,0,0,0,0,0,0,0,0,0,0,0,0,0,0,0,1.7175,1.7176,0,1.722,1.722,1.7221,1.7195,1.7193,1.7192,1.7191,1.7237,1.7239,1.7241,0,0,0,0,0,0,0,0,0,0,0,0,0,1.7065,1.7067,1.7175,1.7176,1.7176,1.722,1.722,1.7221,1.7195,1.7193,1.7192,1.719,1.7236,1.7239,1.7241,0,0,0,0,0,0,0,0,0,0,0,0,0,1.7112,1.7068,1.7175,1.7168,1.7168,1.7219,1.722,1.7221,1.7195,1.7193,1.7191,1.719,1.7235,1.7238,1.7242,1.7302,0,0,1.7253,1.7254,0,0,0,0,0,0,0,0,1.7109,1.7116,1.7169,1.7169,1.7169,1.72,1.7198,1.7248,1.7196,1.7185,1.7191,1.7189,1.7226,1.723,1.7243,1.7304,1.7306,1.7253,1.7255,1.7257,1.7258,0,0,0,0,0,0,0,1.7106,1.7114,1.7193,1.717,1.717,1.7163,1.7167,1.7207,1.7215,1.7186,1.7184,1.719,1.7225,1.7239,1.7243,1.7307,1.7253,1.7256,1.7258,1.726,1.7415,1.7417,0,0,0,0,0,0,1.7103,1.7111,1.7191,1.7194,1.7134,1.7166,1.7171,1.7192,1.7215,1.7217,1.7191,1.7188,1.7234,1.7239,1.7245,1.7313,1.7257,1.726,1.7262,1.7413,1.7415,1.7417,0,0,0,0,0,0,1.7101,1.7111,1.7189,1.7152,1.7162,1.717,1.7193,1.7194,1.7207,1.7219,1.722,1.7204,1.7233,1.724,1.7287,1.7315,1.7262,1.7265,1.741,1.7414,1.7416,1.7453,0,0,0,0,0,0,1.7098,1.711,1.7134,1.7153,1.7164,1.7232,1.7195,1.7196,1.7213,1.721,1.7231,1.7233,1.7232,1.7282,1.729,1.7319,1.7268,1.7408,1.7412,1.7415,1.7449,1.7457,1.7463,0,0,0,0,0,1.7094,1.7143,1.7135,1.7145,1.7194,1.7233,1.7239,1.7237,1.7216,1.7239,1.7246,1.7232,1.7311,1.7287,1.7296,1.7326,1.7406,1.7411,1.7415,1.7446,1.7455,1.7463,0,0,0,0,0,0,1.7129,1.7146,1.7137,1.7194,1.7212,1.7229,1.7258,1.7248,1.7272,1.7268,1.7264,1.7269,1.7317,1.7327,1.73,1.7383,1.7355,1.7361,1.7375,1.7384,1.7391,1.7387,1.7271,0,0,0,0,0,1.7143,1.7174,1.7187,1.7236,1.7245,1.725,1.7268,1.7264,1.7283,1.729,1.7301,1.732,1.7348,1.7367,1.7394,1.7451,1.7453,1.7476,1.7483,1.7488,1.7494,1.7521,1.753,1.7432,1.7432,1.7432,0,0,1.7172,1.7185,1.7206,1.7243,1.7257,1.7288,1.7257,1.7292,1.7315,1.7296,1.734,1.7348,1.7368,1.7419,1.7443,1.7429,1.7521,1.7494,1.7499,1.7501,1.7526,1.7535,1.7544,1.7435,1.7434,1.7434,0,0,1.7241,1.7256,1.7296,1.731,1.733,1.7333,1.7342,1.736,1.7364,1.7408,1.7393,1.742,1.747,1.7484,1.7497,1.7568,1.7555,1.7577,1.7613,1.7639,1.7647,1.7654,1.7676,1.7684,1.7582,1.7583,1.7583,0,1.7276,1.7322,1.7318,1.7353,1.7369,1.7352,1.7391,1.7405,1.7434,1.7444,1.7428,1.7488,1.7501,1.7553,1.757,1.7583,1.7591,1.7574,1.7646,1.7653,1.7659,1.768,1.7689,1.7585,1.7585,1.7584,1.7584,0,1.7361,1.7394,1.7424,1.745,1.7469,1.7506,1.7507,1.7526,1.752,1.7524,1.7567,1.7581,1.7609,1.7621,1.7617,1.7672,1.7662,1.7647,1.7618,1.7671,1.7691,1.7699,1.7588,1.7587,1.7587,1.7586,0,0,1.7455,1.7476,1.7487,1.7496,1.7516,1.7541,1.7576,1.7603,1.7618,1.7638,1.7666,1.7707,1.7691,1.7706,1.7703,1.7726,1.7777,1.7707,1.7707,1.7717,1.7835,1.7845,1.7855,1.7769,1.7771,1.7772,1.7833,0,1.7523,1.7584,1.758,1.7637,1.7665,1.7648,1.7678,1.7693,1.7696,1.772,1.7724,1.7751,1.773,1.7739,1.7761,1.7766,1.78,1.7762,1.7793,1.7794,1.7787,1.7866,1.7877,1.7934,1.7841,1.7842,1.7843,0,1.7611,1.7631,1.7691,1.7703,1.7714,1.7742,1.7763,1.7787,1.7802,1.7803,1.7818,1.781,1.7843,1.7815,1.7859,1.7833,1.7846,1.785,1.7852,1.7853,1.7821,1.7867,1.7952,1.796,1.7856,1.7855,1.7854,0,1.7669,1.7712,1.7751,1.7761,1.7777,1.7796,1.7804,1.7817,1.7832,1.7851,1.786,1.7884,1.7896,1.7914,1.7911,1.7891,1.7955,1.7927,1.7955,1.7955,1.7968,1.7967,1.8055,1.798,1.798,1.798,1.798,0,1.7744,1.778,1.7777,1.7802,1.7841,1.7835,1.7874,1.7879,1.7891,1.7915,1.7902,1.7925,1.7921,1.7943,1.7942,1.7977,1.7984,1.7984,1.7982,1.7984,1.7983,1.799,1.7985,1.7982,1.7982,1.7981,1.7981,0,1.7815,1.7815,1.7857,1.7868,1.7871,1.7899,1.7908,1.793,1.7931,1.7962,1.7968,1.7971,1.7996,1.7995,1.8025,1.8023,1.8066,1.8062,1.8061,1.8059,1.8086,1.8082,1.8179,1.819,1.8111,1.8112,1.8112,0,1.7863,1.7889,1.7902,1.7917,1.7925,1.7949,1.7963,1.7958,1.7974,1.7991,1.801,1.8034,1.8053,1.8094,1.8098,1.8119,1.8113,1.8146,1.8117,1.8116,1.8111,1.8108,1.8109,1.8151,1.8152,1.8153,1.8153,0,1.7945,1.7942,1.7963,1.7983,1.8,1.8016,1.8031,1.8043,1.8039,1.8057,1.8082,1.8096,1.8124,1.8147,1.8167,1.8174,1.8162,1.8163,1.817,1.817,1.8167,1.8166,1.8074,1.816,1.8159,1.8159,1.8159,1.8158,1.8004,1.8025,1.8036,1.8059,1.8069,1.8082,1.8102,1.8105,1.8125,1.8147,1.8143,1.817,1.8182,1.8207,1.8216,1.8236,1.8224,1.8236,1.8238,1.824,1.8242,1.8165,1.824,1.824,1.824,1.824,1.8239,0,1.8083,1.8088,1.8109,1.8128,1.8145,1.8133,1.8147,1.8162,1.8186,1.8197,1.8215,1.8242,1.8263,1.8268,1.8288,1.8303,1.8298,1.8309,1.8306,1.8307,1.8252,1.8243,1.8312,1.8312,1.8312,1.8312,1.8312,1.8312,1.8126,1.816,1.8159,1.8197,1.8203,1.8228,1.8237,1.8248,1.8257,1.8287,1.8304,1.8307,1.8315,1.8335,1.8353,1.8354,1.8361,1.8373,1.8371,1.8319,1.8312,1.8305,1.8296,1.8375,1.8375,1.8424,1.8425,1.8425]},{"header":{"parameterUnit":"m.s-1","parameterCategory":1,"la1":30.2991,"la2":30.254,"lo1":-89.0895,"lo2":-89.0444,"dy":0.0017,"dx":0.0017,"nx":28,"ny":28,"refTime":"2025-06-01T21:00:00:Z","depth":0,"parameterNumber":3,"parameterNumberName":"V-component_of_WINDS"},"data":[0,0,0,0,0,0,0,0,0,0,0,0,0,0,0,0,0,0,0,0,0,0,0,0,0,0,0,0,0,0,0,0,0,0,0,0,0,0,0,0,0,0,0,0,0,0,0,0,0,0,0,0,0,0,0,0,0,0,0.0499,0.05,0,0.0515,0.0516,0.0516,0.0499,0.0498,0.0498,0.0497,0.0516,0.0517,0.0518,0,0,0,0,0,0,0,0,0,0,0,0,0,0.0455,0.0456,0.0499,0.05,0.05,0.0515,0.0516,0.0516,0.0499,0.0498,0.0498,0.0497,0.0515,0.0517,0.0518,0,0,0,0,0,0,0,0,0,0,0,0,0,0.0473,0.0456,0.0499,0.0493,0.0493,0.0515,0.0516,0.0516,0.0499,0.0498,0.0497,0.0496,0.0515,0.0517,0.0518,0.0548,0,0,0.0523,0.0524,0,0,0,0,0,0,0,0,0.0472,0.0475,0.0494,0.0494,0.0493,0.0504,0.0507,0.0527,0.05,0.0497,0.0497,0.0496,0.0513,0.0515,0.052,0.0549,0.055,0.0523,0.0524,0.0525,0.0526,0,0,0,0,0,0,0,0.0471,0.0474,0.0506,0.0494,0.0494,0.049,0.0491,0.051,0.051,0.0497,0.0496,0.0498,0.0512,0.0518,0.052,0.055,0.0523,0.0525,0.0526,0.0526,0.0603,0.0604,0,0,0,0,0,0,0.047,0.0473,0.0505,0.0506,0.048,0.0492,0.0493,0.0502,0.051,0.051,0.0499,0.0497,0.0516,0.0518,0.0521,0.0556,0.0525,0.0527,0.0528,0.0602,0.0603,0.0605,0,0,0,0,0,0,0.0469,0.0473,0.0505,0.0489,0.0493,0.0493,0.0503,0.0503,0.0508,0.0511,0.0511,0.0505,0.0515,0.0518,0.0541,0.0556,0.0527,0.0529,0.0601,0.0603,0.0604,0.0627,0,0,0,0,0,0,0.0468,0.0473,0.0484,0.049,0.0494,0.0525,0.0504,0.0504,0.0511,0.0509,0.0517,0.0517,0.0515,0.0539,0.0543,0.0558,0.053,0.06,0.0602,0.0604,0.0625,0.0629,0.0632,0,0,0,0,0,0.0466,0.0491,0.0485,0.0489,0.0508,0.0526,0.0528,0.0524,0.0512,0.0524,0.0525,0.0517,0.0554,0.0541,0.0545,0.0562,0.0599,0.0601,0.0603,0.0623,0.0628,0.0632,0,0,0,0,0,0,0.0489,0.0491,0.0485,0.0512,0.0518,0.0523,0.0537,0.053,0.0541,0.0538,0.0533,0.0535,0.0559,0.0562,0.0548,0.059,0.0574,0.0578,0.0588,0.0592,0.0596,0.0595,0.0532,0,0,0,0,0,0.0496,0.051,0.0512,0.0535,0.0539,0.0537,0.0545,0.0541,0.0548,0.0551,0.0554,0.0562,0.0575,0.0584,0.0596,0.0624,0.0626,0.0637,0.0641,0.0645,0.0648,0.0662,0.0668,0.0612,0.0612,0.0612,0,0,0.0513,0.0516,0.0525,0.054,0.0544,0.0559,0.054,0.0556,0.0567,0.0554,0.0575,0.0577,0.0585,0.0611,0.0622,0.0614,0.0663,0.0648,0.065,0.0652,0.0665,0.0671,0.0675,0.0614,0.0614,0.0613,0,0,0.0551,0.0555,0.0574,0.0579,0.0585,0.0584,0.0588,0.0593,0.0594,0.0615,0.0605,0.0617,0.064,0.0646,0.0652,0.0689,0.0682,0.0693,0.0714,0.0729,0.0733,0.0737,0.075,0.0755,0.0696,0.0696,0.0697,0,0.0571,0.0592,0.0585,0.0602,0.0608,0.0595,0.0615,0.062,0.063,0.0635,0.0626,0.0653,0.0657,0.0684,0.0692,0.0698,0.0703,0.0693,0.0733,0.0736,0.074,0.0753,0.0758,0.0698,0.0698,0.0698,0.0697,0,0.0616,0.0631,0.0646,0.0655,0.0663,0.0681,0.0677,0.0686,0.068,0.068,0.0701,0.0705,0.0718,0.0723,0.0719,0.0748,0.0743,0.0733,0.0717,0.0747,0.0758,0.0763,0.07,0.0699,0.0699,0.0699,0,0,0.0671,0.0674,0.068,0.0684,0.0689,0.07,0.0717,0.0728,0.0735,0.0742,0.0757,0.0775,0.0765,0.0772,0.0768,0.078,0.0809,0.0768,0.0769,0.0776,0.0841,0.0849,0.0855,0.0803,0.0804,0.0805,0.0841,0,0.0709,0.0738,0.0731,0.076,0.0772,0.0759,0.0773,0.0778,0.0778,0.0789,0.0788,0.0801,0.0787,0.0791,0.0802,0.0803,0.0822,0.08,0.0817,0.0817,0.0816,0.0861,0.087,0.0903,0.0845,0.0846,0.0846,0,0.0758,0.0765,0.0795,0.0796,0.0801,0.0815,0.0823,0.0834,0.0838,0.0837,0.0843,0.0836,0.0853,0.0835,0.0858,0.0843,0.0849,0.085,0.0851,0.0853,0.0834,0.0865,0.0914,0.0919,0.0854,0.0853,0.0853,0,0.0795,0.0812,0.0831,0.0835,0.0837,0.0847,0.0848,0.0852,0.0858,0.0866,0.087,0.088,0.0885,0.0893,0.0889,0.0876,0.0912,0.0894,0.0911,0.0912,0.0921,0.092,0.0972,0.0923,0.0923,0.0923,0.0923,0,0.0838,0.0857,0.0848,0.086,0.088,0.0872,0.0892,0.0892,0.0895,0.0907,0.0896,0.0907,0.09,0.0911,0.0907,0.0926,0.0929,0.0928,0.0927,0.093,0.093,0.0935,0.0932,0.0925,0.0924,0.0924,0.0924,0,0.0883,0.0878,0.0898,0.0898,0.0898,0.0913,0.0913,0.0924,0.0922,0.0937,0.094,0.0937,0.0948,0.0944,0.0957,0.0955,0.0979,0.0975,0.0977,0.0977,0.0994,0.0992,0.1051,0.1058,0.1005,0.1005,0.1005,0,0.0912,0.0926,0.0926,0.0933,0.0935,0.0946,0.0952,0.0944,0.095,0.0956,0.0966,0.0977,0.0985,0.1004,0.1003,0.1013,0.1009,0.1029,0.1011,0.1012,0.101,0.1009,0.101,0.1033,0.1034,0.1034,0.1035,0,0.0963,0.0959,0.0968,0.0975,0.0982,0.0988,0.0993,0.0999,0.0991,0.0999,0.1011,0.1017,0.1029,0.104,0.1048,0.105,0.1041,0.104,0.1045,0.1048,0.1049,0.1048,0.0988,0.1039,0.1039,0.1038,0.1038,0.1038,0.1001,0.1012,0.1014,0.1023,0.1026,0.103,0.104,0.1038,0.1047,0.1056,0.105,0.1064,0.1067,0.1076,0.1079,0.1089,0.1082,0.1089,0.109,0.1092,0.1094,0.1046,0.1091,0.1091,0.1091,0.1091,0.109,0,0.1052,0.1052,0.106,0.1067,0.1074,0.1063,0.1067,0.1075,0.1086,0.1089,0.1097,0.1109,0.1119,0.1118,0.1127,0.1135,0.1131,0.1138,0.1138,0.1138,0.1101,0.1096,0.1141,0.1141,0.1141,0.1141,0.1141,0.1141,0.1079,0.1097,0.1093,0.1111,0.1111,0.1123,0.1126,0.113,0.1132,0.1146,0.1154,0.1153,0.1154,0.1162,0.1171,0.117,0.1174,0.1182,0.118,0.1146,0.1141,0.1136,0.1132,0.1183,0.1183,0.1217,0.1217,0.1217]}]]